Theta_e
315 315 316 316 315 316 317 316 316 316 317 317 316 314 313 313 311 310 308 308 308 308 308 308 308 307 307 306 307 306 306 307 309 312 312 311 312 314 315 313 313 313 311 310 311 312 312 311 311 312 315 317 316 317 314 318 324 327 337 334 321 321 322 320 322 320 320 321 318 317 317 319 316 315 313 312 317 318 316 321 323 326 328 326 327 322 326 335
314 315 315 315 316 316 316 316 316 316 317 317 314 312 312 312 310 309 308 308 308 308 308 307 307 306 307 306 307 306 307 310 311 313 312 311 313 315 317 315 313 312 311 311 311 311 312 312 310 313 319 318 315 317 316 315 322 332 335 328 325 330 322 318 323 319 317 318 318 318 316 316 317 315 314 315 317 317 317 318 322 331 335 329 327 326 331 334
314 314 314 315 316 315 316 316 316 316 316 316 314 311 311 310 308 308 308 307 308 308 307 307 307 306 307 306 307 306 308 311 311 312 311 312 316 316 317 315 312 312 311 311 312 311 313 313 310 314 319 318 316 318 320 316 318 328 330 325 330 335 323 317 320 317 316 317 318 318 314 314 316 314 313 317 318 316 319 320 321 330 345 338 328 328 332 333
314 313 314 315 315 315 316 315 315 316 316 316 315 312 311 309 308 308 307 307 307 308 307 306 306 306 307 307 308 309 309 309 308 313 311 312 317 314 313 313 311 312 312 312 313 313 313 311 309 315 318 317 318 318 319 319 316 320 327 329 328 326 320 317 317 316 315 316 318 317 314 314 314 313 313 317 318 317 319 322 320 327 350 340 328 329 331 331
314 314 314 314 314 315 315 315 315 315 316 316 315 313 311 310 309 307 306 306 307 307 307 306 306 307 307 306 308 310 310 308 310 316 313 313 317 313 311 312 312 312 312 313 314 313 312 310 310 317 318 314 317 318 316 316 316 316 318 322 322 319 316 316 316 316 314 314 317 316 315 314 313 313 316 318 320 321 319 320 319 324 344 339 329 330 329 330
314 314 313 313 314 315 314 315 315 315 316 316 315 313 312 311 309 307 306 306 307 307 307 306 306 306 307 306 309 312 311 309 313 317 315 315 316 312 312 312 313 312 311 314 313 312 313 312 311 315 317 315 316 317 315 313 315 319 316 315 318 317 317 316 316 317 314 315 318 317 315 314 314 314 315 316 319 322 317 317 315 318 331 332 328 329 330 330
314 314 313 313 314 314 314 315 315 315 315 315 314 312 312 311 309 307 306 306 306 307 306 306 306 306 307 307 310 313 313 312 313 316 316 315 314 312 313 312 312 313 312 313 312 313 315 313 313 316 318 316 314 313 314 313 316 323 318 314 315 315 317 316 315 317 316 317 318 314 313 314 317 315 312 313 317 318 314 309 306 313 324 327 328 329 329 329
314 313 313 313 314 313 313 315 314 315 315 315 313 312 311 310 309 307 306 306 306 307 306 306 307 306 308 309 312 313 312 313 314 315 314 313 313 312 312 313 312 312 312 313 313 314 315 313 313 314 317 315 314 314 313 313 317 322 318 315 315 314 316 316 316 318 317 316 314 313 314 316 315 313 312 316 319 317 314 310 311 320 326 328 329 330 328 327
314 313 312 312 313 312 313 314 314 314 314 313 313 311 311 309 308 307 306 306 305 306 306 306 306 306 309 310 311 311 310 313 315 314 312 311 312 312 313 313 313 313 314 313 313 312 312 314 314 313 315 313 313 315 314 314 316 318 318 317 316 314 315 315 315 318 319 316 314 314 316 315 313 311 315 320 319 317 318 322 326 329 332 330 330 329 327 326
314 313 312 312 312 311 313 314 313 313 312 313 312 311 310 309 308 307 306 305 305 306 306 306 306 306 310 311 310 309 311 316 316 313 312 312 312 313 314 314 314 314 314 313 312 311 312 314 313 312 314 314 314 314 313 313 314 317 319 317 317 316 315 315 315 316 318 316 315 316 316 316 314 313 317 318 315 315 323 330 328 333 338 331 329 328 326 326
314 313 312 311 311 310 312 313 312 312 312 312 312 311 310 308 308 307 306 305 305 306 306 307 307 307 310 311 310 310 313 317 315 313 311 311 312 313 315 315 315 315 314 313 312 312 314 313 310 311 314 313 315 315 313 313 313 316 318 317 318 319 315 314 316 315 316 314 314 317 315 316 315 316 319 316 312 313 323 331 326 333 337 328 329 328 325 325
314 313 312 312 311 310 311 311 311 311 311 312 313 312 310 309 307 306 306 305 305 306 306 307 307 308 309 309 310 312 315 317 314 312 311 312 313 314 315 314 314 316 314 313 314 314 315 313 312 313 314 313 316 316 314 315 315 315 317 316 319 323 318 313 315 315 315 314 315 316 313 315 316 317 318 314 313 313 319 327 327 328 328 325 327 326 324 324
313 313 312 312 311 311 310 310 310 310 311 312 313 312 311 309 307 306 306 305 305 306 306 307 307 309 308 308 311 314 316 316 313 311 311 312 314 314 314 314 314 315 315 314 314 314 315 314 314 315 314 317 317 313 314 315 315 315 317 319 320 322 319 313 314 315 314 315 315 313 312 317 319 317 314 311 312 313 317 323 324 324 322 320 321 323 324 321
313 312 312 312 311 311 310 310 310 310 311 312 312 312 311 309 308 307 306 305 305 306 307 306 308 310 308 308 312 314 315 315 313 311 312 312 314 314 314 314 314 314 315 315 314 314 316 314 313 314 313 316 315 311 317 318 318 316 313 322 323 315 318 318 315 316 314 313 313 309 312 318 319 318 313 311 312 314 317 321 321 322 319 317 317 318 320 318
312 312 311 311 311 310 310 310 310 310 311 312 312 312 310 309 308 306 306 306 306 306 307 307 309 310 308 309 312 314 315 313 312 311 312 314 313 314 314 314 314 314 314 314 314 314 314 313 315 317 313 313 314 315 321 320 324 323 313 322 323 313 319 323 316 317 315 313 313 309 313 318 319 319 313 311 313 314 317 320 318 319 318 316 315 314 316 314
312 311 311 311 310 309 309 309 310 310 311 312 312 311 310 309 308 307 307 306 307 307 308 310 311 308 308 310 312 313 313 313 313 312 313 314 314 315 314 314 313 313 315 314 315 314 313 316 316 315 314 314 315 319 323 321 326 326 317 320 322 315 318 319 315 316 316 315 314 312 314 319 319 319 315 311 314 313 315 319 318 318 318 315 314 313 313 312
311 311 310 310 309 309 309 309 310 311 312 312 311 310 309 309 308 307 308 307 309 309 309 312 311 307 307 309 312 314 313 312 313 313 314 314 314 315 313 314 313 312 315 313 315 313 313 317 314 313 317 317 317 319 319 316 318 321 319 320 320 319 318 318 318 316 315 315 316 315 315 319 320 321 319 314 313 313 315 319 320 320 317 315 313 312 312 312
311 310 310 309 309 309 309 309 310 311 312 310 310 310 310 311 310 309 310 310 311 309 309 310 308 309 309 308 313 314 312 313 313 313 314 314 314 314 314 314 311 312 315 314 314 314 314 317 317 318 321 316 315 317 318 318 319 319 319 318 317 316 315 318 320 315 314 315 316 317 316 319 321 319 319 315 310 314 317 319 319 319 318 316 314 313 312 311
310 309 309 309 309 309 309 309 310 311 311 310 311 312 311 311 311 312 312 310 309 307 310 309 307 312 312 310 314 314 313 313 313 313 314 314 314 314 314 313 314 316 316 316 315 315 319 320 317 318 319 317 314 316 320 323 322 321 323 325 323 320 317 319 319 314 313 316 317 319 318 320 320 317 319 316 310 313 317 318 318 318 317 316 315 314 312 312
309 309 310 310 310 310 310 310 310 311 311 311 312 311 311 312 312 313 312 311 309 307 310 311 310 315 314 314 316 313 313 312 312 313 313 313 314 314 313 313 318 320 318 320 317 314 320 320 316 318 318 317 317 317 318 318 318 320 323 327 325 321 319 317 316 315 314 316 317 318 318 320 319 318 318 314 310 312 317 318 318 317 315 314 314 314 313 312
309 310 311 311 310 310 311 311 311 311 311 312 313 312 310 311 311 310 311 310 307 305 309 310 310 315 315 313 314 311 312 313 312 314 313 313 314 314 314 314 317 318 318 321 318 316 320 318 317 320 317 315 317 316 315 315 317 320 321 324 321 318 318 315 315 317 314 313 316 316 317 319 318 318 316 313 311 313 316 317 317 316 314 312 313 314 314 312
310 310 311 310 310 311 311 312 311 311 312 313 314 314 312 310 309 309 309 308 306 306 309 310 311 316 313 311 312 311 314 315 313 314 314 314 314 313 315 316 316 316 316 317 318 320 321 318 319 319 314 312 313 314 317 320 323 324 321 321 321 318 317 316 315 316 314 314 319 321 320 319 317 316 314 313 313 313 313 313 314 314 313 312 311 312 312 312
310 310 310 310 310 311 311 312 312 312 312 313 314 314 312 310 310 309 308 308 308 308 310 312 317 318 313 312 313 312 313 315 314 315 313 313 314 314 315 316 317 317 316 316 319 319 318 319 320 315 311 313 313 314 318 320 321 325 323 319 319 319 318 318 316 314 314 312 316 320 318 316 316 318 319 315 312 311 313 313 312 312 312 311 311 311 311 311
310 310 311 310 310 312 312 312 312 311 312 313 314 313 310 311 311 310 311 310 310 311 310 310 315 319 315 313 312 312 313 313 314 314 312 314 315 313 315 316 317 317 316 318 318 317 318 316 313 312 313 316 315 313 317 318 315 320 331 330 324 324 322 317 315 317 317 314 316 317 315 322 327 327 331 325 314 311 314 314 314 314 312 310 310 310 310 311
311 311 311 311 312 313 312 312 312 310 312 313 314 311 310 312 310 310 314 312 310 311 309 308 311 316 314 312 313 313 312 313 314 313 311 313 314 313 313 314 316 317 316 317 315 316 317 311 310 314 316 318 317 315 319 322 315 314 327 330 326 330 326 319 320 323 323 318 315 312 314 330 337 329 328 325 317 313 313 312 314 316 312 311 313 312 310 310
313 313 313 313 314 314 313 314 312 310 313 313 313 311 309 311 310 310 314 314 312 310 309 309 310 311 312 313 315 315 313 312 312 311 311 311 312 312 312 312 314 316 315 315 316 317 315 312 314 319 320 320 318 317 316 320 319 314 317 320 324 332 327 321 321 320 321 317 311 312 315 322 324 319 318 319 317 317 315 315 319 317 310 310 313 313 313 312
315 314 315 315 315 313 315 317 313 311 314 312 311 311 309 311 310 309 313 312 312 311 309 308 307 309 313 312 313 313 313 313 311 311 312 312 310 310 313 313 312 313 314 316 318 316 314 315 317 320 325 322 318 318 315 319 321 314 315 321 327 330 326 327 325 320 321 316 316 323 322 316 316 315 316 317 318 320 320 320 321 317 313 313 312 310 312 312
316 316 316 317 315 314 315 316 312 311 314 312 311 311 310 312 309 310 314 310 310 311 308 307 307 310 312 309 311 312 312 314 315 313 310 310 310 311 316 317 314 315 313 314 318 314 314 319 319 320 326 322 320 320 316 322 326 316 315 321 325 326 330 334 332 327 321 313 319 326 315 313 323 322 319 316 315 318 320 319 318 317 317 318 316 314 312 310
318 317 318 318 316 315 316 315 313 312 313 312 311 310 310 310 308 310 313 309 309 312 309 307 308 311 312 310 312 313 313 314 316 314 311 310 310 310 314 314 314 316 312 315 323 317 313 316 317 319 322 319 319 318 315 323 327 317 313 319 320 323 329 331 329 325 317 313 324 326 312 311 320 324 324 316 312 319 322 321 320 318 318 321 326 328 324 320
319 319 319 318 317 316 317 317 315 313 312 313 311 309 309 310 310 309 309 308 312 312 308 308 309 312 313 310 312 313 315 316 315 314 313 313 312 311 310 310 314 320 318 322 326 319 313 311 312 315 316 317 317 316 316 319 317 314 318 322 321 324 328 331 331 322 312 319 327 322 314 310 312 323 329 317 313 319 319 322 322 319 322 328 335 335 332 332
319 319 319 318 318 317 318 319 315 311 312 312 310 309 309 314 317 311 306 310 316 312 308 308 310 311 311 311 313 313 315 316 314 314 315 314 313 314 312 310 315 321 320 322 322 318 315 312 313 315 314 316 319 318 316 316 315 318 326 325 318 323 325 327 331 320 312 323 325 317 314 311 310 321 324 318 318 317 315 321 323 319 322 331 337 336 333 335
319 319 319 318 318 318 319 319 314 311 311 310 311 315 314 313 313 312 310 311 314 313 311 311 311 311 311 313 315 315 317 318 314 314 317 317 315 314 315 315 319 318 316 319 320 317 317 316 315 314 313 316 323 323 318 320 322 320 322 322 316 320 319 321 328 321 318 322 316 314 316 311 313 317 315 317 319 316 314 318 320 319 321 329 338 339 338 338
319 319 319 318 319 318 319 318 315 315 314 311 314 321 322 314 309 313 317 314 313 313 313 314 313 312 311 313 315 315 316 316 314 314 316 317 316 314 315 317 319 320 319 321 321 317 319 321 317 315 315 315 319 322 319 320 322 316 318 320 319 319 316 320 325 317 316 319 313 312 316 315 317 316 313 316 313 313 314 315 318 319 320 324 329 333 337 341
317 318 318 318 319 318 318 318 318 318 315 312 314 317 317 313 311 315 318 314 314 315 314 314 313 311 312 313 313 315 316 314 313 314 315 315 315 315 316 312 313 322 324 320 320 318 318 321 320 318 318 316 315 318 323 323 318 316 317 316 318 325 324 321 324 319 318 320 315 311 315 323 322 312 312 316 313 314 317 316 316 317 320 322 322 327 335 343
316 317 317 317 317 318 318 317 318 318 314 313 314 312 310 310 312 315 314 314 317 317 313 313 312 311 312 313 312 313 315 315 313 314 315 316 316 316 317 312 312 322 323 316 317 317 315 318 321 317 315 316 316 317 321 322 318 316 314 312 314 322 324 317 315 319 317 316 317 314 317 327 320 311 314 313 312 316 318 318 316 318 325 325 324 329 334 341
314 315 316 316 316 317 317 317 318 316 316 317 313 309 310 313 317 318 315 316 318 314 311 313 314 313 312 311 313 312 313 316 315 314 315 316 315 315 316 314 313 315 316 317 319 317 315 316 317 315 314 315 316 315 317 318 317 315 313 317 318 316 323 320 310 311 312 311 317 316 317 323 316 313 318 313 312 317 318 320 319 321 327 325 326 330 331 337
313 314 315 314 316 317 316 317 317 315 319 321 312 309 313 316 318 321 320 316 314 312 313 313 313 315 313 312 314 313 313 317 316 315 316 315 315 315 316 316 314 312 313 316 318 318 320 319 314 315 316 313 311 314 317 315 316 318 318 321 316 310 319 323 314 318 318 315 319 316 315 319 315 316 321 314 311 315 318 321 321 322 324 324 327 323 318 325
312 313 314 314 315 316 316 317 316 317 323 321 313 314 320 317 316 321 321 314 311 314 317 315 313 314 313 313 314 312 313 316 315 315 316 314 314 316 315 315 313 311 311 312 312 315 319 317 314 313 316 315 313 315 317 314 312 318 321 318 316 316 320 317 313 319 319 315 322 321 315 313 312 316 319 313 314 318 318 318 317 320 322 323 324 318 313 319
311 314 315 313 314 315 317 317 316 320 324 320 315 317 321 319 317 319 319 317 318 317 314 317 316 313 313 313 313 312 312 314 314 315 315 313 314 315 313 314 314 311 310 310 311 313 313 314 315 313 313 315 315 315 318 318 313 313 313 311 315 323 323 318 315 317 317 315 319 322 319 316 315 315 315 312 318 323 319 315 317 321 323 322 320 320 319 321
311 316 316 312 313 316 316 315 315 319 321 318 317 317 318 318 317 316 316 319 321 317 316 322 318 314 314 314 313 312 313 315 314 315 315 312 313 313 311 312 313 312 310 309 311 314 312 310 313 314 312 314 318 317 316 318 316 314 314 313 315 317 316 318 316 315 319 320 319 319 317 321 322 317 314 314 318 322 321 318 320 323 324 323 318 318 319 320
311 316 315 312 314 315 315 315 315 317 318 317 318 318 317 318 317 315 315 318 319 316 319 325 320 318 318 315 313 313 313 315 314 314 315 312 312 314 312 313 314 312 311 309 311 315 313 311 318 320 316 317 321 318 315 316 316 315 315 315 316 315 315 317 316 314 315 316 319 317 312 317 323 316 313 317 318 320 320 317 320 327 326 324 320 319 320 324
311 314 313 312 315 314 315 317 314 314 316 317 316 317 316 317 317 316 314 317 320 318 318 322 321 322 324 320 318 316 314 316 314 314 316 313 313 315 315 316 318 312 312 312 311 314 316 317 322 323 320 320 318 313 312 315 316 314 315 316 315 315 316 317 318 318 315 312 315 317 315 315 314 311 314 317 315 317 318 317 321 330 330 326 326 329 329 330
312 312 311 312 314 313 315 317 314 313 314 314 314 314 315 316 317 315 313 315 319 320 322 323 320 320 321 321 320 316 314 315 314 315 318 315 313 315 316 319 319 312 311 313 311 313 316 317 317 319 321 322 320 315 313 314 314 314 316 317 315 315 318 321 322 320 319 316 315 315 316 314 310 313 318 317 313 316 320 321 321 324 327 327 330 334 334 334
310 310 311 311 310 311 314 315 314 313 313 313 314 315 314 315 317 315 315 317 319 321 323 322 319 317 318 319 320 318 315 315 314 315 316 315 313 314 316 318 315 311 313 316 314 312 314 316 316 317 318 319 319 320 318 315 315 317 319 318 316 317 318 318 317 315 315 320 319 315 316 314 312 314 318 318 318 319 320 321 320 320 323 325 331 336 336 338
309 309 310 309 308 310 313 314 314 313 312 313 315 315 314 315 316 316 316 317 319 321 321 319 318 320 322 320 319 319 317 317 319 317 316 318 318 316 316 316 314 316 320 320 319 314 315 318 317 315 315 314 316 317 318 319 317 318 322 321 316 317 316 315 316 315 315 319 319 315 314 313 312 313 315 317 319 317 315 317 317 319 322 325 332 339 337 336
310 310 309 309 309 310 311 313 314 315 314 314 314 314 315 315 316 316 315 315 316 317 319 318 317 320 322 319 319 321 319 318 320 319 318 321 322 318 315 314 316 319 320 319 319 318 320 319 315 313 314 313 312 313 317 322 320 317 320 319 316 315 315 315 317 317 315 315 316 315 314 313 313 313 314 317 319 319 318 320 321 320 321 325 331 334 332 331
308 310 309 309 311 311 310 312 314 314 314 314 314 314 314 315 316 316 315 315 315 315 316 317 316 318 320 319 319 321 320 319 319 320 322 323 321 317 313 314 316 316 316 315 315 318 320 318 315 314 314 313 315 317 318 320 319 318 318 317 316 315 314 315 317 315 314 314 315 315 314 313 313 313 317 319 319 320 320 321 322 319 319 324 325 325 327 327
305 307 306 306 309 311 311 311 312 313 314 314 313 314 314 314 315 316 316 315 315 315 316 317 316 317 318 318 320 320 320 320 319 320 321 320 319 317 315 314 314 314 315 314 316 320 320 318 318 316 313 314 320 323 320 317 317 317 317 317 316 315 314 315 315 314 315 316 315 314 315 316 313 311 316 318 316 317 317 317 317 317 320 325 324 323 324 324
302 303 303 303 306 309 310 311 311 312 313 313 313 314 314 314 314 315 316 316 316 316 317 318 317 317 317 317 318 319 319 320 320 319 320 320 319 319 320 319 315 314 316 316 318 320 319 321 323 318 314 316 320 322 319 316 317 317 316 317 316 314 314 314 314 314 314 315 315 315 316 316 313 312 316 318 318 317 317 317 317 318 323 326 324 322 322 322
301 303 303 304 305 306 308 310 311 312 312 312 313 313 313 313 314 315 315 316 317 316 316 317 317 317 316 314 315 317 318 319 320 320 319 320 319 318 320 322 317 314 317 318 318 317 314 318 322 319 318 319 319 319 316 315 316 317 317 317 316 314 314 313 314 314 314 315 314 314 316 314 313 315 317 319 320 318 315 317 318 319 322 321 320 320 320 321
299 299 301 304 306 305 306 309 310 312 312 312 312 312 312 313 313 314 315 314 316 317 316 316 317 317 316 314 315 316 316 317 318 319 318 318 319 318 319 320 318 316 317 317 318 319 316 317 319 319 319 320 319 317 316 315 316 317 319 318 317 315 313 313 314 314 314 315 315 315 315 313 313 317 316 316 318 318 317 319 320 320 319 317 317 320 321 320
298 298 300 304 306 305 305 307 309 311 312 311 311 311 312 312 312 313 315 314 314 316 316 316 316 316 317 316 316 316 316 317 318 318 317 315 315 316 316 316 317 319 319 316 316 319 318 318 321 320 320 320 318 316 316 317 317 318 318 317 316 314 313 313 313 313 313 313 315 315 314 312 315 319 316 315 318 319 318 320 320 318 319 319 320 321 320 318
Wind_Speed
17 17 16 13 14 14 13 13 13 13 12 11 11 12 12 13 14 15 16 16 16 17 16 15 14 13 13 10 9 8 7 7 8 11 11 9 12 10 8 11 7 4 6 6 7 6 3 0 2 2 4 3 3 1 1 2 2 4 3 4 2 4 3 5 7 7 4 5 7 5 6 8 5 2 1 2 5 3 3 3 2 3 3 2 5 3 15 29
20 17 15 15 14 13 13 13 13 13 12 10 11 12 12 12 14 15 15 16 16 16 16 14 14 13 12 10 8 7 6 8 8 9 13 11 9 9 7 9 8 5 6 6 6 6 5 1 1 4 4 2 2 2 1 1 3 3 3 3 3 6 4 4 7 6 3 4 6 5 4 6 7 5 3 2 1 2 3 1 5 4 4 5 2 10 23 27
20 17 16 15 13 13 13 12 13 12 11 10 10 12 11 12 14 15 15 16 16 15 15 14 13 13 11 10 8 7 7 7 5 7 12 12 9 9 7 8 7 6 6 6 6 5 5 4 4 5 5 2 1 2 2 1 1 2 4 3 5 6 3 3 5 6 4 4 7 5 2 2 4 3 2 4 3 1 4 5 0 2 6 2 4 13 22 23
19 17 16 14 13 14 13 12 13 12 11 10 10 11 12 12 13 14 14 15 15 14 14 13 13 12 11 10 7 8 8 4 3 5 10 13 10 8 7 7 7 6 6 6 6 5 4 4 5 4 5 2 3 2 2 1 0 2 4 3 5 3 2 3 6 5 4 5 7 5 4 2 3 2 2 7 6 2 6 7 7 8 8 5 5 11 19 20
18 16 15 15 14 14 13 13 13 12 11 10 10 11 12 12 12 14 14 14 14 14 13 13 13 12 11 9 8 10 7 2 3 5 11 13 10 8 8 7 6 6 7 6 6 5 4 4 5 5 4 1 2 3 1 2 2 2 0 4 5 3 2 2 4 2 2 5 6 7 6 3 2 1 3 9 7 5 7 8 10 10 10 12 11 13 16 16
18 15 15 15 14 14 13 13 12 11 11 9 10 12 12 12 12 13 14 13 13 13 13 13 12 11 9 8 8 9 6 2 2 5 10 12 10 9 8 7 7 7 7 7 5 5 4 4 5 2 2 2 2 2 2 2 2 2 1 2 3 4 1 1 0 1 3 8 7 6 4 3 4 0 2 8 8 7 6 6 8 8 11 15 15 15 14 14
17 14 14 16 15 14 13 12 12 12 11 9 9 11 11 11 11 11 12 12 12 12 12 12 10 10 8 8 8 4 2 2 1 6 10 11 10 9 8 7 7 7 7 7 6 5 4 5 4 4 4 3 3 2 2 1 5 5 2 1 1 3 1 2 2 0 4 7 6 5 4 3 5 2 1 5 9 8 5 4 4 9 12 14 13 13 14 15
16 14 15 17 17 15 13 12 12 12 11 8 8 10 11 11 11 10 11 11 11 11 11 11 10 9 8 8 6 2 1 3 3 8 10 11 11 9 8 7 7 8 7 7 6 6 5 5 5 4 4 2 4 3 1 3 5 4 3 2 2 1 3 4 3 5 5 4 2 5 5 2 5 3 1 7 11 7 3 2 4 10 11 11 11 12 12 14
16 15 15 18 18 17 15 14 13 12 9 7 8 10 11 11 11 10 11 11 11 11 10 11 10 9 9 6 4 3 3 3 5 9 10 11 10 9 8 6 7 8 8 6 6 9 6 4 5 5 4 3 4 4 2 3 1 2 4 3 3 2 4 4 3 5 4 2 2 5 2 3 2 1 3 9 9 3 3 5 5 9 9 10 10 11 12 12
17 15 16 19 19 18 16 15 13 11 8 7 7 9 11 12 11 11 11 11 11 11 10 11 10 10 10 4 5 3 3 2 7 10 10 11 10 10 8 6 7 8 8 6 6 8 5 6 6 5 5 2 3 3 2 4 3 3 6 5 5 2 3 3 2 3 3 2 2 5 2 5 2 1 4 6 5 1 6 6 4 8 9 11 9 10 13 14
17 16 17 18 17 16 17 17 14 10 9 8 7 8 10 11 12 11 11 11 12 12 11 11 10 11 9 4 5 4 3 3 8 10 11 10 10 9 7 6 7 7 7 6 6 6 4 8 8 5 2 2 3 2 0 2 3 5 7 5 6 5 2 4 3 2 3 2 2 5 2 5 3 1 6 4 5 1 6 6 5 7 8 9 9 9 11 14
17 16 16 16 15 14 17 18 13 9 9 8 6 8 9 11 12 11 11 11 11 12 12 11 11 11 6 3 3 4 2 5 8 10 11 10 9 8 6 6 6 5 6 6 6 6 5 9 10 6 1 3 5 2 2 2 5 4 5 4 6 8 3 3 2 2 2 2 0 3 1 5 3 5 6 2 4 2 5 6 6 7 7 6 8 7 8 13
17 17 16 16 15 13 15 16 11 10 10 7 6 7 9 10 11 10 11 11 11 12 12 12 11 10 5 1 3 4 3 6 9 10 10 9 8 7 6 6 5 4 4 5 8 7 5 8 8 6 2 5 3 2 4 4 4 2 4 5 2 6 4 3 1 1 1 2 2 2 1 6 8 9 5 2 3 5 2 6 6 6 6 5 6 6 7 11
17 17 16 15 14 13 13 13 11 11 9 7 7 7 8 9 10 10 11 11 11 11 11 12 12 8 4 1 3 3 4 6 9 10 9 9 8 7 6 5 5 4 3 4 8 6 4 7 8 6 3 4 3 2 4 5 4 2 3 3 2 1 4 6 2 2 4 0 3 5 2 6 8 10 7 5 1 6 6 8 7 7 6 6 5 6 7 10
17 16 15 14 13 12 12 12 11 11 9 7 6 7 8 8 9 10 10 11 11 11 11 11 12 7 2 2 2 2 5 6 9 10 8 9 8 6 5 5 5 5 5 5 8 7 6 8 8 5 1 2 4 6 4 4 4 3 2 1 3 2 5 7 2 4 5 1 5 6 2 6 8 9 6 4 2 7 7 8 7 7 7 7 6 6 7 9
16 16 15 14 14 13 12 12 11 10 9 7 6 7 8 8 9 9 10 10 10 10 9 8 9 6 3 1 0 2 4 5 9 10 8 9 7 5 6 7 6 7 7 7 9 8 7 7 4 2 3 3 5 7 4 4 4 4 3 2 2 2 3 4 1 0 2 1 3 3 2 4 5 7 6 4 4 5 6 7 7 7 9 8 6 7 7 8
17 16 15 16 16 14 13 12 11 11 8 7 7 7 8 8 8 9 9 10 10 9 7 7 7 4 1 1 1 2 3 5 9 9 8 7 6 7 9 6 4 6 7 7 7 5 5 5 2 0 3 3 3 6 5 1 2 2 3 2 3 3 2 2 2 3 4 2 1 2 1 6 7 8 8 5 4 2 4 7 7 7 8 8 7 7 7 8
17 16 16 16 15 14 13 12 12 10 8 8 9 10 10 10 9 9 10 12 11 8 5 4 5 2 2 2 3 3 3 7 10 9 7 6 6 8 7 4 4 6 6 5 3 2 3 4 2 1 3 3 2 5 5 4 5 5 3 3 2 2 3 3 3 2 3 3 1 1 2 9 11 10 10 7 1 1 7 7 6 7 7 8 7 8 8 8
17 16 17 16 15 15 13 12 11 9 8 9 12 13 13 12 9 7 8 9 7 5 3 3 5 4 4 4 3 3 6 9 9 7 6 6 7 7 5 5 6 6 5 3 2 1 2 3 3 3 2 3 5 5 6 7 8 9 6 5 5 3 3 5 4 4 1 3 3 4 4 8 10 10 11 9 1 2 8 6 6 8 7 8 7 8 9 9
17 18 19 16 15 15 13 13 11 9 9 11 15 14 10 7 6 3 1 2 2 2 2 4 5 3 1 1 4 9 10 8 5 4 6 5 7 7 5 5 6 6 3 4 2 1 4 4 3 5 7 7 7 6 5 4 6 8 6 5 3 3 2 3 2 5 0 3 3 4 4 8 10 11 12 9 3 3 8 8 9 9 8 8 8 10 11 11
18 20 19 17 17 15 13 12 10 11 10 14 17 9 4 6 4 4 3 2 3 1 0 4 3 3 1 3 7 9 7 4 2 2 5 4 6 7 1 3 5 3 0 3 3 2 5 5 7 7 8 7 6 7 7 7 6 6 6 5 2 2 2 2 1 4 3 1 3 2 3 9 10 11 12 8 5 6 9 9 11 11 10 9 8 12 13 11
19 19 19 19 17 15 13 11 10 11 11 14 13 3 3 5 4 10 9 1 3 1 3 2 3 3 1 4 6 4 4 4 2 1 3 3 3 4 1 4 6 4 0 2 3 4 4 3 9 7 5 6 6 5 7 7 6 6 4 5 3 1 2 3 3 4 4 1 3 4 5 9 11 11 11 10 9 9 8 9 10 10 10 10 10 12 12 11
19 19 19 18 17 15 13 12 10 11 12 14 11 4 3 5 7 13 8 4 2 1 3 2 3 2 2 2 5 2 4 5 4 3 3 4 2 2 4 5 5 5 2 4 5 5 2 5 7 5 7 9 6 4 8 7 5 5 4 5 2 2 1 1 3 3 4 2 1 3 5 8 8 7 10 10 8 6 6 8 10 9 10 12 11 10 10 11
19 18 18 17 16 13 12 11 10 11 14 15 11 7 5 8 11 11 4 4 3 1 1 1 2 4 3 2 5 4 3 2 4 5 4 5 4 2 4 5 5 5 3 5 8 7 4 5 2 7 5 8 7 4 7 7 3 2 3 6 4 3 4 3 2 2 3 4 3 3 5 7 5 5 7 6 4 5 4 5 8 9 11 11 10 10 10 10
19 17 17 16 15 13 12 10 8 10 14 11 10 10 8 10 11 8 4 3 1 1 1 1 1 3 4 3 3 4 3 1 1 3 4 6 5 3 3 2 4 4 3 5 8 5 3 3 4 8 5 6 8 4 5 7 3 2 3 6 7 7 6 2 2 4 4 4 4 5 4 6 5 4 7 6 6 7 4 4 9 11 9 8 9 11 9 8
19 18 17 17 14 15 13 6 7 12 11 6 8 10 8 9 10 7 4 4 1 2 1 2 1 4 6 3 2 4 4 1 2 1 3 5 3 3 3 1 2 3 5 5 4 3 1 2 3 7 6 6 7 4 4 6 6 1 4 5 6 7 8 6 4 4 2 2 3 4 2 5 7 5 8 6 7 10 8 7 11 10 7 6 8 9 7 7
19 18 18 15 14 16 10 4 10 13 7 5 10 10 7 8 9 5 5 5 3 2 4 1 0 5 7 2 2 6 4 3 2 3 3 3 0 3 4 3 1 2 3 4 2 2 2 3 5 6 7 6 5 3 5 6 8 3 3 6 8 8 8 6 6 4 2 3 4 5 4 2 6 6 6 5 6 10 10 11 12 9 8 8 7 8 8 8
18 17 16 14 14 14 6 6 15 11 3 7 13 10 7 8 7 3 5 2 2 2 4 1 1 5 4 1 4 5 2 2 5 1 2 3 1 4 3 5 5 4 1 4 4 3 1 3 3 5 6 4 4 4 5 7 6 3 4 7 6 7 7 5 6 4 1 1 4 5 2 2 6 7 5 5 4 9 10 11 11 9 10 9 8 7 7 8
16 16 15 14 13 10 6 8 13 9 6 10 12 10 8 7 4 3 3 2 1 2 1 1 3 2 1 3 4 4 1 2 3 2 2 4 1 4 3 5 6 7 3 4 5 3 1 3 5 6 5 4 3 2 3 5 3 4 6 8 6 6 6 5 5 4 3 2 4 6 2 2 5 7 5 2 2 7 9 8 8 9 9 8 8 7 6 6
16 15 15 16 13 9 8 7 8 9 10 11 12 11 9 5 3 4 2 3 2 2 1 2 2 2 5 6 2 3 2 2 1 1 3 1 3 6 2 3 6 7 4 6 4 1 2 2 1 4 3 5 4 3 1 2 4 7 7 7 7 6 6 4 3 4 3 3 6 6 3 1 4 6 4 3 4 5 5 6 7 8 9 7 6 6 5 5
18 16 15 16 14 11 8 5 6 10 11 14 14 11 6 3 3 5 5 3 3 2 1 1 1 3 10 10 3 0 2 2 1 3 3 1 3 4 2 2 4 5 3 4 3 4 4 3 1 0 1 4 6 5 4 4 5 7 5 5 4 4 4 4 4 4 1 5 6 5 2 2 4 6 4 5 6 6 5 5 6 8 10 8 6 6 5 5
20 17 16 16 14 11 6 5 10 12 11 15 13 6 5 3 2 4 4 1 2 3 4 4 3 5 9 7 4 3 3 2 0 3 5 3 3 3 3 4 4 3 1 3 1 2 2 1 2 3 1 4 6 5 5 6 5 5 5 6 4 2 3 2 3 0 3 6 4 3 2 3 6 7 8 10 10 7 7 7 7 7 9 8 7 7 6 5
20 18 16 15 13 10 6 6 11 10 10 13 8 4 6 4 6 5 2 1 1 2 4 4 2 5 9 7 4 4 3 2 2 2 2 3 4 4 2 3 5 5 3 4 3 2 1 4 2 1 1 2 5 6 3 0 0 4 5 5 4 3 2 2 4 2 4 4 3 3 2 3 5 4 9 13 9 4 5 7 7 7 8 8 8 7 7 6
18 20 18 16 13 11 7 7 9 9 8 8 5 5 5 5 5 3 4 3 1 2 2 4 6 7 7 5 5 4 3 1 3 4 2 3 4 5 4 3 3 5 4 3 3 5 4 4 3 4 2 3 5 5 6 6 3 3 4 6 5 5 5 4 4 3 4 3 3 3 2 3 2 2 6 9 7 5 6 6 5 7 8 7 7 7 7 7
12 17 19 16 13 11 9 7 7 9 6 5 5 5 7 7 3 3 5 4 1 3 3 3 7 8 4 2 1 4 3 2 2 4 4 4 5 6 5 5 5 4 5 5 3 2 4 4 5 2 1 5 5 3 4 7 2 1 2 5 3 4 5 3 3 5 3 1 3 2 3 5 4 6 8 6 6 7 6 5 4 6 7 5 6 7 6 6
10 12 13 13 13 12 10 7 6 7 5 6 6 7 6 4 3 3 4 4 4 6 7 4 4 5 4 1 1 4 1 3 4 3 3 3 3 5 5 4 6 6 5 6 3 1 3 3 5 3 2 2 2 1 2 3 2 2 2 3 4 4 7 5 2 1 3 1 4 1 4 5 4 7 9 5 7 8 7 6 5 6 7 5 6 7 5 6
10 9 7 8 11 12 11 8 6 6 4 5 7 7 3 1 3 3 1 3 4 7 9 5 2 4 5 3 4 6 2 3 4 3 3 3 2 5 5 4 4 8 7 4 2 3 5 1 4 1 1 2 1 2 4 3 3 5 3 5 4 2 4 4 2 2 3 3 5 1 4 5 2 4 7 5 4 8 8 7 6 7 7 5 7 6 3 6
8 6 4 4 7 9 10 8 6 4 4 4 6 4 1 1 2 1 0 2 5 5 6 5 3 3 5 5 5 5 4 4 5 4 4 3 4 5 8 4 3 8 8 3 1 2 5 2 4 1 2 4 4 4 2 5 3 5 4 3 4 3 1 2 2 2 1 2 5 4 4 4 5 6 5 3 4 7 9 7 6 8 6 6 8 6 3 5
6 4 1 4 7 8 10 9 6 5 3 4 7 3 1 2 0 0 0 1 3 4 4 4 2 2 4 6 5 5 5 5 7 5 3 4 4 4 7 5 2 7 9 5 3 2 3 3 3 2 1 2 3 2 4 1 4 3 2 3 3 3 4 3 3 3 3 3 3 4 5 4 6 6 6 7 8 8 8 7 6 8 7 6 8 7 7 6
3 2 1 4 8 10 12 10 5 3 2 4 5 2 1 1 0 2 2 1 2 2 3 3 2 4 4 4 3 4 4 5 7 5 3 5 4 4 5 4 3 5 5 4 3 2 2 2 4 2 3 1 2 3 7 7 4 3 3 4 2 1 2 2 1 2 4 4 2 2 5 6 5 4 8 10 8 8 8 6 7 7 6 6 7 6 6 6
3 2 0 3 10 14 13 8 2 2 3 1 2 2 1 1 2 2 5 3 3 1 2 4 3 4 5 3 2 4 4 4 6 5 3 5 5 3 3 3 5 6 5 4 3 4 2 3 4 2 1 4 5 4 5 8 7 6 6 7 7 5 4 3 2 1 2 3 4 3 5 8 5 4 7 8 8 8 7 6 6 6 5 6 7 6 5 5
2 2 1 4 15 16 10 4 1 1 2 1 2 2 1 1 2 0 3 4 3 1 3 4 2 2 3 3 2 5 6 4 5 5 4 5 6 4 1 1 3 8 7 4 3 3 3 4 4 3 3 6 6 4 2 3 2 3 3 5 6 5 5 6 5 3 1 1 2 4 3 7 4 4 5 4 5 6 5 6 5 5 6 6 5 4 4 4
2 2 1 5 16 14 6 2 2 2 0 1 1 1 1 2 2 1 0 2 2 2 3 2 1 2 2 2 2 5 6 4 5 5 3 3 4 3 0 1 2 7 6 3 1 1 2 4 4 1 3 4 5 5 3 2 3 1 2 2 5 4 4 5 5 4 4 4 3 3 4 7 3 2 3 4 3 3 3 4 5 4 4 4 5 5 5 5
2 2 1 2 7 7 4 3 4 3 3 3 2 1 1 1 2 3 2 1 1 2 2 1 1 2 1 2 3 4 4 3 4 4 2 2 2 1 2 2 3 6 4 2 3 4 4 2 4 3 1 3 4 4 3 2 2 3 3 3 5 6 5 4 2 3 2 6 8 5 7 7 3 4 3 3 2 1 3 4 5 2 3 4 5 5 5 5
2 1 1 2 3 1 2 2 3 4 5 4 4 4 3 1 1 3 4 2 2 3 3 1 1 3 2 2 3 2 1 2 2 2 1 1 1 2 3 4 1 4 2 1 1 4 5 4 5 6 6 6 6 5 4 4 3 2 3 6 7 8 9 5 2 3 5 7 8 6 9 7 2 3 1 2 3 3 4 2 3 3 2 2 4 5 5 5
2 1 0 1 3 1 1 1 2 4 6 6 4 4 6 3 1 2 5 3 2 3 4 1 2 4 2 1 3 1 1 3 2 2 2 2 2 2 2 4 3 2 0 2 2 2 3 2 5 9 10 11 9 7 5 8 7 6 8 10 9 9 11 8 4 5 9 7 4 7 12 11 7 2 3 4 4 5 4 1 2 5 5 5 5 5 5 5
1 1 2 2 1 1 1 1 2 2 4 7 4 4 8 6 1 1 3 3 4 4 3 1 2 2 1 3 3 2 2 2 3 2 2 3 2 2 2 3 4 2 2 2 1 3 4 2 6 9 11 9 6 5 6 10 12 14 13 12 12 11 11 11 9 12 11 5 7 12 10 11 15 9 7 9 7 5 6 5 5 6 6 5 5 5 6 6
1 0 1 1 1 3 3 3 5 3 4 7 4 3 8 8 5 4 3 1 3 5 3 1 4 6 6 6 4 2 3 2 1 3 3 2 1 2 3 1 1 2 2 1 1 3 5 4 5 6 9 8 3 3 7 9 10 12 13 14 14 13 13 15 17 17 12 8 12 16 10 12 19 12 9 11 9 7 7 6 4 5 6 5 5 5 7 8
1 0 1 2 1 2 1 3 7 6 5 7 5 4 8 11 10 7 3 3 2 5 6 5 6 9 8 6 5 3 4 4 3 4 4 3 2 2 1 1 1 2 3 2 1 2 4 3 1 4 6 8 5 3 6 9 9 8 10 13 14 15 18 20 20 20 16 13 15 16 10 13 16 9 8 10 8 5 3 2 2 3 6 7 6 7 7 8
1 0 1 2 2 1 2 2 7 6 5 6 5 4 6 10 12 8 4 5 6 5 7 9 8 9 10 9 8 7 8 8 6 5 6 5 3 3 3 3 2 2 3 2 1 0 2 2 1 4 3 6 4 3 4 7 8 8 8 10 11 14 17 18 17 16 13 12 16 15 13 14 10 6 7 7 4 4 3 3 5 7 7 8 7 7 7 7
1 2 1 2 1 0 1 1 4 6 4 5 6 5 7 10 11 7 3 4 7 8 10 13 10 7 7 10 11 12 12 11 9 6 8 8 6 4 3 3 3 4 2 2 1 1 1 1 2 3 3 6 3 5 4 3 1 3 7 11 13 13 13 12 12 12 12 14 16 13 13 14 7 6 5 4 6 6 6 6 8 8 7 7 7 7 7 7
2 3 2 3 1 1 1 1 3 5 5 7 7 4 4 6 7 8 4 4 5 8 10 12 11 6 5 10 14 15 11 9 7 4 5 6 5 5 5 4 5 6 4 2 1 1 3 3 1 2 4 5 2 5 6 5 2 5 11 14 16 12 8 8 10 13 13 13 11 11 14 13 4 4 5 4 7 6 7 7 8 8 7 7 7 7 7 7
Wind_Direction
184 186 187 184 185 187 188 189 186 187 188 183 179 179 183 190 194 195 197 196 195 195 192 190 190 192 196 198 199 206 214 207 202 193 200 226 220 220 213 205 212 194 185 182 176 181 178 131 209 153 116 88 13 324 34 24 73 58 80 100 139 176 194 183 176 195 181 178 193 198 172 144 160 206 185 47 42 69 74 29 335 322 344 301 284 308 161 168
189 186 185 185 186 186 189 191 187 188 188 183 180 181 184 188 193 193 195 196 194 193 190 187 187 190 196 195 195 200 202 199 204 208 215 223 213 213 211 203 203 193 183 175 180 179 159 166 179 106 77 58 356 352 19 1 76 87 110 102 206 201 199 191 176 192 181 165 176 170 172 162 167 171 141 139 330 53 121 315 348 340 322 1 49 139 153 165
190 188 187 186 186 187 190 190 188 190 187 180 175 179 186 189 192 192 195 196 193 191 189 186 186 189 193 192 190 193 189 187 210 230 221 212 205 211 204 193 191 186 179 167 172 169 156 162 147 107 64 62 345 5 81 29 58 145 118 97 236 211 214 228 184 201 219 163 151 158 174 170 177 165 151 159 159 160 188 213 328 253 261 330 109 140 152 164
189 187 187 188 187 189 190 188 189 190 183 174 171 179 185 187 191 193 193 194 193 191 188 185 187 189 189 189 186 186 178 166 233 215 197 197 201 205 191 184 183 180 173 156 161 163 136 119 113 89 71 71 333 5 128 293 233 141 116 167 226 186 166 221 193 220 232 164 149 142 124 141 213 175 139 142 133 267 245 219 199 201 202 177 168 154 155 166
190 186 188 191 189 189 188 190 193 188 180 172 171 179 182 185 191 192 191 193 194 191 187 185 187 188 187 187 183 186 167 121 236 183 173 188 194 195 184 179 180 173 164 155 161 151 123 100 87 65 65 108 352 33 179 274 99 95 109 197 202 147 120 224 189 212 161 130 116 122 144 171 176 122 146 150 157 230 234 219 209 196 175 167 171 165 162 170
191 189 191 191 188 188 190 194 193 186 182 176 177 182 181 186 191 192 191 190 193 191 188 187 187 187 187 184 182 192 179 163 237 158 168 181 184 189 180 179 173 161 160 162 161 135 113 74 80 102 67 84 141 130 185 301 60 115 262 237 204 188 177 329 351 260 138 121 132 152 171 143 117 196 185 172 196 220 224 231 214 191 170 164 158 161 168 177
193 192 189 187 187 189 191 192 189 186 187 184 184 186 182 185 191 193 191 188 191 190 188 187 187 188 183 174 174 182 185 240 244 151 165 170 179 186 175 179 165 156 164 160 151 129 110 90 119 154 91 81 171 151 163 11 40 96 164 289 184 193 223 343 16 12 117 131 177 166 126 130 158 184 113 210 233 237 261 290 199 164 154 154 153 168 180 185
196 193 186 184 189 191 187 189 190 190 193 192 192 190 184 185 189 192 190 187 187 187 189 186 185 186 177 169 159 81 323 251 182 158 164 165 176 179 170 174 158 159 164 164 166 148 131 128 162 157 100 190 171 130 132 72 39 86 158 204 106 71 320 338 32 55 75 113 151 119 120 201 193 159 119 238 249 252 267 9 128 143 144 157 168 180 186 191
195 191 186 185 192 193 184 189 197 197 200 201 198 193 187 187 191 191 188 186 183 185 188 185 185 181 178 170 115 109 233 219 167 167 166 166 175 175 169 167 161 162 156 165 169 153 159 168 187 179 152 199 140 121 139 105 200 175 134 144 106 18 331 350 32 37 43 52 60 117 121 305 215 168 263 246 250 244 103 83 120 139 151 176 181 185 188 194
191 189 189 190 197 197 187 190 198 202 207 206 202 197 193 192 193 191 187 184 182 182 185 186 186 177 181 168 97 155 234 173 170 175 170 171 173 171 169 167 170 171 156 150 151 152 173 189 186 163 137 139 109 113 143 134 183 151 105 99 78 7 321 15 68 8 12 35 48 140 189 305 289 295 255 261 280 166 109 100 147 155 169 188 188 194 195 199
190 191 193 198 203 201 195 195 197 204 209 200 199 200 199 198 195 192 187 185 183 179 180 186 184 178 180 141 121 195 239 163 179 177 174 176 172 172 172 175 176 177 164 143 160 170 166 173 157 123 134 154 112 79 210 143 110 118 117 93 11 357 1 32 87 2 358 83 74 122 145 310 339 288 225 267 322 176 140 142 176 183 192 197 195 200 200 209
191 192 197 204 209 208 204 203 204 211 206 193 197 202 199 198 195 191 186 184 183 178 178 181 184 180 163 93 155 209 195 166 180 176 177 176 173 176 172 180 179 175 171 153 177 173 139 163 138 102 224 147 120 99 152 100 84 113 109 106 339 360 24 357 75 329 357 118 328 104 68 298 256 232 220 278 356 72 145 175 199 211 217 211 207 210 208 220
190 194 201 207 213 216 210 208 213 210 197 192 204 202 197 196 191 187 185 184 181 179 178 177 181 176 143 87 221 208 185 177 179 176 176 175 173 177 175 179 170 161 173 165 175 160 141 173 140 113 135 109 124 179 119 66 68 121 67 101 9 8 356 318 26 345 91 122 322 118 196 274 250 246 239 304 40 87 161 220 225 229 233 229 217 220 225 227
190 197 203 210 215 212 204 205 208 201 194 201 209 201 197 191 185 184 182 182 179 178 180 174 173 163 126 230 232 211 208 187 179 177 173 176 171 166 167 166 165 169 166 158 164 152 148 163 126 102 101 97 129 110 63 26 35 89 56 60 48 92 264 302 333 126 134 105 19 105 190 267 267 272 275 294 123 149 207 234 235 241 245 243 229 227 236 234
192 199 204 209 210 200 196 200 200 196 196 203 210 204 193 182 181 181 176 177 175 176 175 168 166 148 83 285 271 196 201 183 177 178 172 173 165 156 160 149 145 144 136 141 146 135 132 135 104 86 85 24 85 90 50 16 21 43 95 321 345 165 255 309 308 149 141 318 38 97 214 269 275 279 287 330 106 171 214 237 245 252 251 249 243 234 239 244
194 198 201 203 206 199 192 194 193 193 197 204 208 193 176 169 171 170 169 170 166 169 164 159 165 142 103 252 351 142 182 180 177 176 171 172 167 152 142 133 123 124 125 124 128 119 102 96 72 87 118 63 87 100 70 34 359 2 100 187 267 172 261 316 323 3 104 102 19 72 223 268 293 283 289 358 84 154 211 248 257 253 253 250 242 240 241 251
195 198 199 202 207 198 188 190 187 190 199 197 182 162 151 149 156 156 156 151 144 149 145 153 163 134 89 122 104 190 189 174 175 170 164 166 165 148 135 120 107 115 111 109 118 99 56 52 49 111 66 69 105 99 88 49 270 297 56 128 224 189 200 281 290 328 45 96 310 19 263 255 278 287 290 320 60 109 235 252 256 250 256 257 249 250 245 246
194 197 196 196 197 188 185 186 181 185 189 170 149 137 132 128 129 135 139 134 122 111 107 133 142 129 252 209 174 198 168 158 164 160 153 149 148 145 132 111 111 107 88 78 80 54 30 30 65 105 37 54 125 109 134 204 197 187 173 147 206 213 201 244 250 268 38 70 236 348 300 265 272 286 289 294 29 283 259 253 261 258 254 258 258 254 248 245
193 191 185 183 182 180 181 176 172 178 171 154 140 130 120 110 103 113 137 138 121 111 138 175 150 158 221 216 176 122 127 144 151 151 143 135 140 133 103 95 102 97 99 94 43 35 73 54 70 126 143 167 184 164 170 197 173 167 172 145 152 175 223 241 250 270 108 108 235 233 241 268 278 287 287 289 333 245 271 279 274 264 253 254 255 253 251 246
191 182 176 175 177 177 174 171 170 172 169 159 148 132 118 114 92 86 186 202 185 157 197 208 164 143 215 212 130 117 119 125 131 143 140 141 144 126 75 53 64 63 104 147 144 68 89 121 175 184 190 191 185 168 136 135 137 137 125 105 137 168 239 256 270 308 20 136 254 244 248 271 275 277 274 283 320 279 273 277 267 262 257 252 250 256 254 245
178 174 175 178 177 174 172 174 170 168 173 170 162 146 149 159 122 155 196 275 249 160 217 220 145 104 61 124 143 136 116 87 47 101 141 151 141 139 72 31 95 86 340 160 140 35 71 147 208 215 200 178 156 147 111 92 90 99 122 114 86 163 224 261 250 318 352 140 266 354 323 274 263 269 271 276 284 256 245 247 254 256 255 255 252 257 258 257
172 175 180 179 174 172 171 167 164 170 177 179 184 210 206 185 143 155 154 140 241 42 66 166 83 57 41 129 162 152 81 86 77 347 166 142 112 159 186 65 125 156 258 120 101 42 60 197 228 222 178 116 97 113 96 85 85 80 107 123 119 193 247 292 298 330 9 51 269 347 341 280 265 264 265 261 252 243 233 232 242 248 252 255 247 249 259 270
170 173 175 172 168 166 163 160 166 180 184 185 199 239 202 180 150 151 135 93 185 1 52 111 93 91 60 125 192 152 83 129 167 229 211 142 117 176 134 100 128 139 126 142 136 125 143 246 236 186 143 114 89 80 94 85 75 85 106 125 161 250 163 257 302 331 14 66 260 327 315 282 280 282 273 263 255 262 255 244 247 245 244 247 248 250 252 258
164 165 166 164 159 153 151 160 174 187 189 193 215 234 186 156 156 156 113 69 153 246 351 138 130 156 143 155 184 146 107 138 162 189 193 149 139 145 138 132 125 125 156 160 143 148 195 255 171 118 118 124 114 101 118 113 61 46 137 136 163 204 166 175 309 339 4 22 30 9 325 291 310 330 292 285 309 295 271 270 268 254 245 251 263 263 248 247
157 160 161 155 150 147 149 163 184 185 183 196 226 220 176 153 166 165 100 70 149 309 311 213 110 182 173 132 156 157 124 106 183 195 183 152 141 131 144 138 123 150 181 140 131 150 216 261 134 116 87 101 118 139 165 142 100 315 214 172 173 169 157 145 31 49 35 357 352 22 357 291 312 318 276 293 330 301 294 308 272 258 252 251 260 262 252 251
158 158 154 147 146 151 152 165 187 174 171 200 213 192 173 163 170 168 97 60 269 259 175 169 133 175 174 137 148 139 111 202 291 51 124 142 139 109 129 118 77 159 175 141 133 160 201 356 85 125 114 94 103 135 195 148 116 203 229 171 148 127 125 126 94 77 79 271 322 39 103 266 302 287 262 297 325 300 302 298 273 269 272 248 247 262 259 252
165 163 156 148 150 154 151 153 166 162 162 206 193 178 177 169 163 159 82 48 282 194 136 172 332 161 169 181 143 133 158 217 112 65 83 121 35 52 117 183 111 139 178 130 125 218 160 56 55 92 95 96 111 150 199 142 120 202 222 128 120 115 129 136 106 95 191 242 328 13 111 237 291 264 265 323 326 301 295 283 278 286 289 272 257 260 258 254
171 172 168 162 161 163 159 144 156 164 182 181 177 177 176 164 156 124 89 96 251 134 129 230 98 138 151 36 77 109 194 201 122 176 347 77 119 43 98 194 159 138 149 121 170 253 132 133 153 118 92 117 175 210 188 127 105 225 188 119 117 119 126 119 97 93 38 6 316 314 124 192 272 274 307 345 308 287 281 273 280 292 293 290 281 270 263 263
178 177 177 168 161 167 171 155 161 183 197 171 171 175 162 153 147 89 90 173 190 77 80 138 114 123 108 63 47 47 35 44 118 218 353 72 94 45 113 190 137 116 52 89 163 232 53 188 191 136 124 178 201 250 184 122 92 181 140 97 75 73 77 74 87 95 42 10 256 255 207 194 266 285 313 353 263 263 270 275 279 285 291 293 292 289 287 288
178 181 183 169 163 173 168 165 176 183 182 172 169 164 146 129 122 115 168 214 146 83 22 123 151 155 138 130 42 2 73 47 25 72 33 59 29 30 103 155 98 101 36 37 94 263 325 283 197 111 143 183 149 97 108 93 121 136 109 73 56 34 35 46 51 75 57 305 257 248 247 189 270 282 262 216 216 224 258 298 295 305 319 311 301 304 308 317
178 183 186 173 170 171 154 152 167 162 166 164 158 154 129 70 86 142 194 212 117 98 71 132 194 138 151 155 148 62 92 46 353 112 113 119 47 41 108 122 75 77 44 37 37 329 356 29 315 272 157 136 101 73 35 24 82 106 87 82 77 2 13 26 2 38 123 255 261 263 261 164 223 261 249 243 253 231 223 262 280 308 324 317 320 330 323 322
180 179 181 178 175 169 152 141 142 136 146 153 147 133 97 87 183 187 204 206 142 181 171 167 204 166 157 144 120 150 126 80 3 128 139 146 142 170 167 165 151 95 140 187 147 342 24 52 292 309 250 147 108 78 38 6 27 75 90 95 90 359 10 356 313 337 221 245 267 281 248 202 233 249 255 264 269 246 220 223 244 283 300 302 318 332 325 321
180 173 172 181 183 178 163 146 148 139 137 146 136 65 76 133 205 198 178 215 187 176 146 125 131 149 147 135 143 160 107 122 184 132 128 120 144 206 234 177 148 119 180 185 125 123 292 310 306 57 284 199 133 123 127 236 109 124 133 126 123 124 105 267 267 276 260 256 281 286 252 253 272 264 247 252 255 244 231 229 236 261 275 281 293 306 309 306
173 171 173 181 185 185 169 145 161 163 144 139 120 82 116 178 207 151 150 215 225 65 75 106 115 130 141 143 180 173 96 135 177 128 120 108 133 203 232 221 156 98 115 144 146 165 177 272 229 164 216 196 166 171 155 147 152 173 154 129 141 155 158 208 220 213 244 278 301 292 252 207 223 280 248 242 262 283 263 252 257 267 266 269 280 286 290 292
152 168 177 182 184 188 178 153 157 165 154 121 111 143 181 198 205 131 158 195 196 60 41 73 114 131 150 69 192 196 138 154 171 121 148 164 167 194 198 200 192 130 128 157 200 167 152 246 255 269 254 164 171 224 124 111 109 239 119 105 156 184 141 136 185 176 174 317 301 261 238 216 209 278 276 262 282 294 285 287 301 286 287 312 301 283 281 285
136 152 170 183 191 194 188 174 161 169 155 110 135 188 203 194 185 185 171 151 150 133 110 77 84 130 168 122 194 222 145 113 149 136 178 200 200 202 197 205 190 172 159 153 172 164 139 262 294 336 341 132 161 228 103 117 174 163 131 171 213 177 113 113 215 58 81 254 271 222 252 291 331 292 290 299 291 297 308 310 309 292 301 325 294 282 295 295
142 136 140 177 194 195 191 186 178 177 132 110 168 200 201 168 174 182 179 119 137 136 128 134 150 146 164 167 191 204 165 111 151 162 188 200 229 199 194 242 198 182 188 150 163 198 151 217 307 21 169 291 331 107 60 34 119 124 177 208 192 123 88 107 184 0 45 242 274 276 244 282 321 273 313 354 292 275 283 294 315 305 299 301 284 281 284 279
137 118 106 168 184 184 189 188 170 143 83 122 187 200 120 148 165 136 133 128 125 122 135 161 162 139 165 178 190 186 170 164 169 173 171 187 246 197 169 207 201 187 200 155 115 212 139 153 307 13 171 300 356 96 78 356 56 127 181 175 117 138 166 95 151 186 145 241 280 301 279 258 204 226 297 327 223 235 253 270 296 290 287 306 305 306 297 284
124 94 61 193 175 173 186 181 143 98 74 176 194 205 160 160 188 346 305 110 101 113 152 181 149 124 169 173 166 169 180 178 169 177 178 182 239 216 170 191 198 189 196 153 132 199 135 153 259 310 273 310 11 135 191 269 29 60 113 110 82 135 166 159 154 164 172 203 262 309 316 271 221 208 202 214 220 216 228 242 255 265 277 295 297 302 309 306
97 77 2 187 167 172 175 159 122 108 157 193 185 183 198 132 103 319 339 44 70 91 165 183 145 140 161 162 157 168 176 168 164 183 206 184 210 234 204 195 168 172 176 132 135 169 120 166 215 294 328 208 196 217 187 167 149 127 138 164 177 84 107 156 157 117 139 164 196 280 292 266 247 205 184 200 218 208 201 203 222 251 273 280 277 279 284 287
61 93 328 171 167 169 160 134 102 175 167 156 131 137 194 139 115 337 344 51 94 89 140 140 143 152 150 146 172 175 156 149 168 184 210 199 198 216 222 189 154 146 125 114 170 183 154 158 168 159 260 207 231 255 189 175 173 167 179 189 180 155 127 149 243 269 115 155 175 182 270 267 241 199 187 191 205 211 201 188 211 255 273 274 273 260 249 260
96 143 319 179 172 168 152 127 107 101 115 143 133 125 149 114 104 26 336 32 75 83 84 100 128 143 142 146 166 166 150 151 180 186 205 208 194 185 209 8 159 156 143 145 198 184 129 107 130 171 217 219 246 284 221 184 139 130 188 192 173 166 145 151 206 233 147 207 167 124 275 274 240 190 206 217 226 231 216 187 204 262 265 262 285 305 297 275
130 150 24 180 178 171 153 160 159 110 117 169 123 82 106 93 94 141 280 15 50 73 61 66 117 98 129 149 143 165 165 166 183 188 205 206 191 199 264 6 172 158 146 153 186 156 116 106 135 216 307 304 311 335 357 46 82 122 252 178 165 182 153 148 182 177 161 200 158 110 257 266 293 309 276 286 271 248 237 199 200 250 280 298 324 330 314 297
119 119 59 181 185 174 161 178 177 175 177 139 122 115 77 74 139 148 151 131 125 105 89 105 111 83 111 108 115 169 183 178 188 194 193 175 183 206 27 12 185 162 152 183 177 181 196 159 132 126 3 333 336 335 312 288 186 200 229 193 180 166 117 96 130 131 203 218 177 173 240 252 304 329 330 7 34 198 250 240 219 236 19 12 339 311 302 315
105 100 356 18 41 104 185 193 161 166 167 151 154 156 148 213 198 158 146 142 158 142 132 160 87 97 112 78 77 109 95 96 168 181 133 167 278 339 20 0 212 177 201 313 154 178 190 182 151 154 187 209 211 220 218 196 174 202 216 198 192 171 155 163 159 146 225 225 176 190 240 247 314 356 358 51 96 171 220 256 267 285 338 334 303 298 303 312
129 121 202 36 43 46 281 6 115 160 173 165 163 164 169 189 272 148 150 162 199 147 118 115 53 63 70 120 110 129 58 61 93 123 132 181 261 297 1 19 54 140 176 33 51 126 140 192 195 189 206 212 210 218 177 140 154 205 214 196 191 189 180 174 145 176 216 218 187 224 240 247 259 242 202 223 192 193 226 284 283 268 263 260 260 266 276 280
122 149 161 140 110 190 248 320 154 168 164 163 169 176 177 182 178 160 180 194 191 157 109 96 109 89 185 176 148 185 193 88 80 114 156 182 226 296 347 65 63 22 20 50 10 100 112 233 221 203 223 227 208 214 183 157 177 202 206 197 195 193 181 180 196 213 212 197 233 237 223 239 252 228 199 227 222 219 252 253 246 260 267 260 254 267 283 291
49 204 176 91 111 183 198 197 179 156 146 163 173 166 173 181 181 181 197 202 161 161 153 150 169 185 194 172 150 170 176 154 161 181 170 161 164 1 4 45 41 353 46 79 339 105 136 228 223 194 233 240 197 194 195 181 191 204 203 199 197 190 183 194 212 221 206 189 237 240 200 215 248 236 199 221 226 225 251 257 260 285 289 276 278 294 301 304
54 353 312 6 67 173 222 164 159 161 164 169 179 174 173 187 195 188 152 112 153 184 187 195 196 197 192 161 148 176 187 189 205 193 171 153 154 133 53 234 248 15 67 86 4 116 155 229 213 156 230 244 223 202 195 189 198 212 211 205 199 194 194 201 213 222 217 213 237 247 230 233 249 231 196 220 223 207 230 272 276 269 265 266 280 292 294 298
79 212 312 32 60 48 353 123 153 171 182 175 191 202 185 192 197 188 150 157 175 182 195 207 199 186 181 169 173 206 210 200 208 197 167 166 192 192 191 202 179 65 58 96 78 320 184 207 99 111 214 256 240 193 183 188 199 214 223 221 211 205 207 211 218 222 223 229 241 250 258 260 250 187 192 218 199 178 195 226 239 245 249 255 267 274 275 276
89 21 64 95 66 3 357 80 147 170 189 193 199 195 196 206 199 178 180 208 184 166 186 202 194 172 173 175 188 211 213 204 211 200 170 180 199 184 183 204 150 114 88 125 116 47 143 179 62 95 206 252 232 174 158 120 128 241 248 236 220 211 212 214 218 218 210 221 236 241 250 256 233 168 197 188 155 194 225 225 239 251 246 242 245 250 255 257
105 20 47 102 61 271 191 67 150 176 193 204 201 179 174 196 178 164 189 250 211 190 193 193 181 158 169 190 204 215 211 197 200 186 171 196 196 155 166 185 156 140 135 132 112 71 121 134 83 138 209 249 215 156 138 96 90 248 243 229 217 210 212 212 224 230 216 210 220 224 236 247 218 158 224 195 151 197 228 219 233 251 248 240 238 239 247 258